TimeCST,TemperatureF,Dew PointF,Humidity,Sea Level PressureIn,VisibilityMPH,Wind Direction,Wind SpeedMPH,Gust SpeedMPH,PrecipitationIn,Events,Conditions,WindDirDegrees,DateUTC
12:52 AM,53.1,32.0,45,29.50,10.0,SSW,13.8,-,N/A,,Clear,200,2013-12-04 06:52:00
1:52 AM,53.1,32.0,45,29.49,10.0,SSW,15.0,-,N/A,,Clear,200,2013-12-04 07:52:00
2:52 AM,54.0,33.1,45,29.50,10.0,SSW,13.8,-,N/A,,Clear,210,2013-12-04 08:52:00
3:52 AM,51.1,33.1,50,29.53,10.0,SW,13.8,-,N/A,,Clear,220,2013-12-04 09:52:00
4:52 AM,51.1,34.0,52,29.54,10.0,SSW,13.8,-,N/A,,Mostly Cloudy,210,2013-12-04 10:52:00
5:52 AM,46.9,34.0,61,29.58,10.0,SW,9.2,-,N/A,,Mostly Cloudy,220,2013-12-04 11:52:00
6:52 AM,50.0,34.0,54,29.64,10.0,WSW,9.2,-,N/A,,Mostly Cloudy,250,2013-12-04 12:52:00
7:52 AM,42.1,34.0,73,29.70,10.0,NW,16.1,-,N/A,,Mostly Cloudy,320,2013-12-04 13:52:00
8:52 AM,43.0,35.1,74,29.73,7.0,North,18.4,-,N/A,,Mostly Cloudy,350,2013-12-04 14:52:00
9:52 AM,46.0,35.1,66,29.76,7.0,North,13.8,-,N/A,,Clear,350,2013-12-04 15:52:00
10:52 AM,48.0,36.0,63,29.76,7.0,North,10.4,-,N/A,,Mostly Cloudy,350,2013-12-04 16:52:00
11:52 AM,51.1,36.0,56,29.75,7.0,North,10.4,-,N/A,,Mostly Cloudy,350,2013-12-04 17:52:00
12:52 PM,53.1,35.1,50,29.74,9.0,NNW,9.2,16.1,N/A,,Mostly Cloudy,340,2013-12-04 18:52:00
1:52 PM,53.1,35.1,50,29.73,10.0,NNE,12.7,-,N/A,,Mostly Cloudy,20,2013-12-04 19:52:00
2:52 PM,53.1,33.1,47,29.73,10.0,NNE,11.5,-,N/A,,Clear,20,2013-12-04 20:52:00
3:52 PM,52.0,32.0,47,29.75,10.0,North,13.8,-,N/A,,Mostly Cloudy,10,2013-12-04 21:52:00
4:52 PM,48.0,30.9,52,29.78,10.0,NNE,13.8,-,N/A,,Mostly Cloudy,30,2013-12-04 22:52:00
5:52 PM,45.0,32.0,60,29.82,10.0,North,11.5,-,N/A,,Mostly Cloudy,10,2013-12-04 23:52:00
6:52 PM,44.1,30.0,58,29.83,10.0,NE,15.0,-,N/A,,Mostly Cloudy,40,2013-12-05 00:52:00
7:52 PM,39.9,28.0,63,29.89,10.0,NNE,21.9,25.3,N/A,,Clear,20,2013-12-05 01:52:00
8:52 PM,37.9,27.0,65,29.92,10.0,North,19.6,27.6,N/A,,Clear,10,2013-12-05 02:52:00
9:52 PM,37.9,28.0,68,29.97,10.0,NNE,24.2,29.9,N/A,,Clear,20,2013-12-05 03:52:00
10:52 PM,35.1,23.0,61,29.99,10.0,North,21.9,-,N/A,,Overcast,10,2013-12-05 04:52:00
11:52 PM,34.0,21.0,59,30.03,10.0,North,25.3,-,N/A,,Overcast,10,2013-12-05 05:52:00